This demonstration page uses our WeatherBlox Daily Observations layout. Learn more.

Left ArrowRight Arrow

Hourly Observations for February 27, 2022

Temp ( °F °C ) Dew Point ( °F °C ) Humidity (%) Winds ( mph kmh ) Pressure ( in mb ) Visibility ( mi km ) Precip ( " mm )
12:53 am 00:53 Clear 33 0.6 17 -8.3 52 52 SW 18 30 30.10 1019 10 16 0.00 0.00
1:53 am 01:53 Clear 31 -0.6 17 -8.3 56 56 SW 13 20 30.10 1019 10 16 0.00 0.00
2:53 am 02:53 Clear 33 0.6 17 -8.3 52 52 SW 13 20 30.09 1019 10 16 0.00 0.00
3:53 am 03:53 Clear 32 0 18 -7.8 56 56 WSW 14 22 30.08 1019 10 16 0.00 0.00
4:53 am 04:53 Clear 34 1.1 18 -7.8 52 52 SW 14 22 30.08 1019 10 16 0.00 0.00
5:53 am 05:53 Clear 34 1.1 18 -7.8 52 52 SW 15 24 30.09 1019 10 16 0.00 0.00
6:53 am 06:53 Mostly Clear 34 1.1 18 -7.8 52 52 WSW 9 15 30.10 1019 10 16 0.00 0.00
7:53 am 07:53 Mostly Cloudy 36 2.2 17 -8.3 46 46 SW 16 26 30.10 1019 10 16 0.00 0.00
8:53 am 08:53 Sunny 38 3.3 17 -8.3 43 43 SW 15 24 30.12 1020 10 16 0.00 0.00
9:53 am 09:53 Cloudy 40 4.4 17 -8.3 40 40 WSW 15 24 30.13 1020 10 16 0.00 0.00
10:53 am 10:53 Partly Cloudy 43 6.1 20 -6.7 40 40 WSW 22 35 30.10 1019 10 16 0.00 0.00
11:53 am 11:53 Mostly Cloudy 47 8.3 20 -6.7 34 34 SW 18 30 30.09 1019 10 16 0.00 0.00
12:53 pm 12:53 Mostly Cloudy 48 8.9 23 -5 37 37 WSW 24 39 30.06 1018 10 16 0.00 0.00
1:53 pm 13:53 Sunny 49 9.4 27 -2.8 43 43 WSW 22 35 30.08 1019 10 16 0.00 0.00
2:53 pm 14:53 Sunny 48 8.9 28 -2.2 46 46 WSW 16 26 30.06 1018 10 16 0.00 0.00
3:53 pm 15:53 Sunny 47 8.3 30 -1.1 52 52 WSW 16 26 30.07 1018 10 16 0.00 0.00
4:53 pm 16:53 Sunny 46 7.8 30 -1.1 54 54 SW 13 20 30.06 1018 10 16 0.00 0.00
5:53 pm 17:53 Sunny 44 6.7 30 -1.1 58 58 SW 10 17 30.07 1018 10 16 0.00 0.00
6:53 pm 18:53 Clear 43 6.1 29 -1.7 58 58 W 15 24 30.04 1017 10 16 0.00 0.00
7:53 pm 19:53 Clear 42 5.6 29 -1.7 60 60 SW 20 31 30.03 1017 10 16 0.00 0.00
8:53 pm 20:53 Clear 41 5 29 -1.7 62 62 SW 22 35 30.01 1016 10 16 0.00 0.00
9:53 pm 21:53 Clear 42 5.6 29 -1.7 60 60 SW 22 35 30.04 1017 10 16 0.00 0.00
10:53 pm 22:53 Clear 39 3.9 29 -1.7 67 67 SW 18 30 30.04 1017 10 16 0.00 0.00
11:53 pm 23:53 Clear 39 3.9 29 -1.7 67 67 SW 22 35 30.03 1017 10 16 0.00 0.00

Powered by AerisWeather